Regional Weather Roundup
Issued by NWS Upton, NY

Home | Current Version | Previous Version | Text Only | Print | Product List | Glossary On
Versions: 1 2 3 4 5 6 7 8 9 10 11 12 13 14 15 16 17 18 19 20 21 22 23 24 25 26 27 28
000
ASUS41 KOKX 241709
RWROKX

REGIONAL WEATHER ROUNDUP
NATIONAL WEATHER SERVICE NEW YORK NY
100 PM EDT MON JUL 24 2017

NOTE: "FAIR" INDICATES FEW OR NO CLOUDS BELOW 12,000 FEET WITH NO
SIGNIFICANT WEATHER AND/OR OBSTRUCTIONS TO VISIBILITY.

NYZ071-072-176-178-NJZ106-104-241800-
NEW YORK CITY METRO AREA

CITY           SKY/WX    TMP DP  RH WIND       PRES   REMARKS
Central Park   CLOUDY    63  61  93 NE9       29.86R
Bronx Bot Gard   N/A     61  59  94 N3        29.84R
LaGuardia APRT LGT RAIN  64  61  90 N13       29.82R
Kennedy INTL   CLOUDY    65  63  93 N17       29.81R
Breezy Point     N/A     63 N/A N/A N18G24      N/A
Newark/Liberty CLOUDY    68  60  75 N20       29.83R
Teterboro      CLOUDY    65  60  84 N9        29.83R
$$

NYZ177-179-078>081-241800-
LONG ISLAND NEW YORK

CITY           SKY/WX    TMP DP  RH WIND       PRES   REMARKS
Jones Beach      N/A     64 N/A N/A N20G25      N/A
Matinecock PT    N/A     61 N/A N/A NE21G26     N/A
Farmingdale    CLOUDY    63  61  93 NE15G24   29.77R
MacArthur/ISP  LGT RAIN  64  63  96 N20       29.77R FOG
Shirley        RAIN      65  65 100 N13G22    29.78R FOG
Mt Sinai Harb    N/A     61 N/A N/A N22         N/A
Westhampton    CLOUDY    67  64  90 NE21G26   29.77S
East Hampton   CLOUDY    64  63  97 NE12G17   29.77S FOG
Montauk          N/A     64  64 100 NE10G22   29.80S
$$

NYZ052-065-067-241800-
HUDSON VALLEY

CITY           SKY/WX    TMP DP  RH WIND       PRES   REMARKS
White Plains   PTSUNNY   62  58  86 N10       29.82R FOG
Larchmont Harb   N/A     61 N/A N/A N12         N/A
Croton O-T Hud   N/A     63 N/A N/A N2G8        N/A
Newburgh       CLOUDY    66  61  82 NE12G23   29.87
Montgomery     CLOUDY    67  60  78 NE12      29.86R
Poughkeepsie   CLOUDY    64  58  80 N7        29.86R
Albany         DRIZZLE   61  57  87 N6        29.91S FOG
$$

NJZ001-105-106-008-010-013-015-019>022-104-241800-
NEW JERSEY

CITY           SKY/WX    TMP DP  RH WIND       PRES   REMARKS
Newark/Liberty CLOUDY    68  60  75 N20       29.83R
Teterboro      CLOUDY    65  60  84 N9        29.83R
Caldwell       CLOUDY    67  61  81 NE9G20    29.84R
Somerville     CLOUDY    74  64  71 NE7       29.81R
Linden         CLOUDY    67  59  74 NE12G20   29.83R
Perth Amboy      N/A     66 N/A N/A N10G17      N/A
Sussex         CLOUDY    67  61  81 N13       29.85R
Andover          N/A     70  61  73 VRB6      29.85R
Trenton        CLOUDY    75  66  73 N9        29.81R
Millville      FAIR      85  73  67 W10       29.79R HX  91
Atlantic City  FAIR      86  72  62 W15       29.78R HX  92
Wrightstown    PTSUNNY   75  69  80 N6        29.79R
Toms River     CLOUDY    77  70  79 N13       29.80R
Belmar         CLOUDY    70  64  81 N15       29.81R
$$

PAZ047>061-062-071-241800-
EASTERN PENNSYLVANIA

CITY           SKY/WX    TMP DP  RH WIND       PRES   REMARKS
Philadelphia   PTSUNNY   83  68  60 N7        29.80R
Allentown      FAIR      79  66  64 E7        29.82R
Scranton       FAIR      76  64  66 VRB5      29.83F
$$

CTZ002-004>006-009-010-012-RIZ004-006-007-MAZ004-011-015-241800-
SOUTHERN NEW ENGLAND
 IN CT

CITY           SKY/WX    TMP DP  RH WIND       PRES   REMARKS
Bradley INTL   RAIN      58  56  93 N15       29.89F FOG
Hartford       RAIN     N/A N/A N/A N14G21    29.87F FOG
Danbury        CLOUDY    59  57  93 NE14G26   29.86S
Wtrbury/Oxford LGT RAIN  55  50  82 NE14G24   29.85F VSB 1
Bridgeport     LGT RAIN  61  57  87 NE17G28   29.81F
Meriden        LGT RAIN  57  55  93 N12G18    29.86R FOG
New Haven      LGT RAIN  59  57  93 N16G25    29.83R FOG
Chester        LGT RAIN  57  57 100 N6G13     29.83S
Groton         LGT RAIN  60  58  92 N13       29.81R FOG
Wilimantic     RAIN      60  58  92 NE13      29.87S

 IN RI

CITY           SKY/WX    TMP DP  RH WIND       PRES   REMARKS
Providence     LGT RAIN  58  58 100 NE14      29.86F FOG
Block Island   LGT RAIN  63  62  97 NE13G22   29.81F FOG
Westerly       LGT RAIN  61  59  93 N10       29.82R FOG
 IN MA

CITY           SKY/WX    TMP DP  RH WIND       PRES   REMARKS
Boston         LGT RAIN  58  56  93 NE13G26   29.91S
Worcester      LGT RAIN  54  52  93 NE10G18   29.92R
Westfield      RAIN      60  59  96 N8        29.90F FOG
Provincetown   LGT RAIN  64  55  72 E16G25    29.86F
Nantucket      CLOUDY    65  63  93 E21G26    29.80F
$$

ANZ330-335-338-340-345-350-353-355-241800-
COASTAL MARINE OBSERVATIONS


STATION/POSITION TIME  SKY/WX   TEMP    WIND        PRES    VSBY  WAVE
                                AIR SEA DIR/SP/G                  HT/PER
                 (UTC)          (F)     (DEG/KT/KT) (MB)    (MI)  (FT/S)
NY HARB ENTRANCE 1550            72 73  320/ 16/ 19 1006.1          5/ 7
20 S FIRE ISLAND 1550            77 76  230/ 14/ 19 1006.1          6/ 7
GREAT SOUTH BAY  1630            67 80   20/ 17/ 21   N/A
23 SSW MONTAUK P 1550            74 73              1007.6          8/ 7
15 E BARNEGAT LI 1630               76                N/A           5/ 6
HUDSON CANYON    1550            79 78  220/ 16/ 19 1007.0          5/ 5
KINGS POINT      1630            63 72   60/ 12/ 20 1009.0
EXECUTION ROCKS  1645            63      40/ 16/ 23   N/A
CENTRAL LI SOUND NOT AVBL
EASTERN LI SOUND NOT AVBL
ROBBINS REEF     1624                   360/ 19/ 23 1009.6
$$


>>>>>>>>>>>>>>>>>>>>>>>>>>>> KEY <<<<<<<<<<<<<<<<<<<<<<<<<<<
>                                                          <
>     SKY/WX - Sky Condition/Present Weather               <
>     TMP    - Temperature in Fahrenheit                   <
>     DP     - Dew Point in Fahrenheit                     <
>     RH     - Relative Humidity in Percent                <
>     WIND   - Direction (from) and Speed in MPH           <
>     PRES   - Mean Sea Level Pressure (inches of Hg)      <
>     WCI    - Wind Chill Index                            <
>     VSB    - VISIBILITY IN MILES                         <
>     HX     - HEAT INDEX                                  <
>     TC     - TEMPERATURE IN CELSIUS                      <
>     VRB    - VARIABLE WIND DIRECTION                     <
>                                                          <
>>>>>>>>>>>>>>>>>>>>>>>>>>>> KEY <<<<<<<<<<<<<<<<<<<<<<<<<<<




USA.gov is the U.S. government's official web portal to all federal, state and local government web resources and services.